{"data":{"norad_id":64258,"epoch":"2026-05-24T05:36:41.393952Z","epoch_age_seconds":131305,"freshness":"FRESH","line1":"1 64258U 25120C   26144.23381243 -.00567178  00000+0 -17845-1 0  9999","line2":"2 64258  53.1583 123.5753 0003600  60.7490 299.3873 15.34783907 55461","mean_motion":15.34783907,"eccentricity":0.00036,"inclination_deg":53.1583,"raan_deg":123.5753,"arg_perigee_deg":60.749,"mean_anomaly_deg":299.3873,"bstar":-0.017845,"rev_number":5546,"period_min":93.824283238331,"perigee_km":459.1001337618,"apogee_km":464.0247173482,"semimajor_km":6839.699425555,"source":"CELESTRAK","updated_at":"2026-05-25T13:38:20.356727Z"}}